Atlantic City, NJ

3:57 AM EDT on May 28, 2017 (GMT -0400)
Atlantic City International

Weather History for KACY - January, 2013

Change the Weather History Date:

Tuesday, January 8, 2013

  Actual Average Record
Temperature  
Mean Temperature 37 °F 33 °F  
Max Temperature 51 °F 42 °F 68 °F (2008)
Min Temperature 22 °F 25 °F 2 °F (1981)
Degree Days  
Heating Degree Days 28 32  
Month to date heating degree days 238 254  
Since 1 July heating degree days 1882 2023  
Cooling Degree Days 0 0  
Month to date cooling degree days 0 0  
Year to date cooling degree days 0 0  
Moisture  
Dew Point 28 °F    
Average Humidity 67    
Maximum Humidity 92    
Minimum Humidity 41    
Precipitation  
Precipitation 0.00 in 0.11 in 0.91 in (2007)
Month to date precipitation T 0.85  
Year to date precipitation T 0.85  
Snow  
Snow 0.00 in 0.10 in 7.70 in (2011)
Month to date snowfall T 0.9  
Since 1 July snowfall 2.5 4.8  
Snow Depth 0.00 in    
Sea Level Pressure  
Sea Level Pressure 30.42 in    
Wind  
Wind Speed 4 mph (SW)    
Max Wind Speed 16 mph    
Max Gust Speed 22 mph    
Visibility 9 miles    
Events      
T = Trace of Precipitation, MM = Missing Value Source: NWS Daily Summary

Daily Weather History Graph

Daily Weather History Graph

Search for Another Location

Airport or City:

Trip Planner

Search our weather history database for the weather conditions in past years. The results will help you decide how hot, cold, wet, or windy it might be!

Date:

Astronomy

Jan. 08, 2013 Rise Set
Actual Time 7:18 AM EST 4:52 PM EST
Civil Twilight 6:48 AM EST 5:21 PM EST
Nautical Twilight 6:15 AM EST 5:55 PM EST
Astronomical Twilight 5:42 AM EST 6:27 PM EST
Moon 3:48 AM EST (1/8) 1:51 PM EST (1/8)
Length of Visible Light 10h 33m
Length of Day
9h 33m
Waning Crescent, 14% of the Moon is Illuminated
Jan 8
Waning Crescent
Jan 11
New
Jan 18
First Quarter
Jan 26
Full
Feb 3
Last Quarter

Hourly Weather History & Observations

Time (EST) Temp. Windchill Dew Point Humidity Pressure Visibility Wind Dir Wind Speed Gust Speed Precip Events Conditions
12:54 AM 26.1 °F - 21.0 °F 81% 30.44 in 10.0 mi Calm Calm - N/A   Clear
1:54 AM 24.1 °F - 19.0 °F 81% 30.43 in 10.0 mi Calm Calm - N/A   Clear
2:54 AM 23.0 °F - 19.0 °F 85% 30.43 in 8.0 mi Calm Calm - N/A   Clear
3:54 AM 23.0 °F - 19.0 °F 85% 30.42 in 6.0 mi Calm Calm - N/A   Clear
4:54 AM 21.9 °F - 19.0 °F 89% 30.41 in 10.0 mi Calm Calm - N/A   Clear
5:54 AM 24.1 °F 19.7 °F 19.9 °F 84% 30.42 in 7.0 mi South 3.5 mph - N/A   Clear
6:54 AM 30.9 °F 26.2 °F 28.0 °F 89% 30.45 in 6.0 mi SW 4.6 mph - N/A   Clear
7:54 AM 32.0 °F 26.4 °F 28.9 °F 88% 30.45 in 8.0 mi SSW 5.8 mph - N/A   Clear
8:54 AM 37.9 °F 32.1 °F 30.9 °F 76% 30.46 in 10.0 mi SW 8.1 mph - N/A   Clear
9:54 AM 43.0 °F 36.8 °F 30.9 °F 62% 30.46 in 10.0 mi SW 11.5 mph - N/A   Clear
10:54 AM 48.0 °F - 28.9 °F 48% 30.43 in 10.0 mi SW 9.2 mph - N/A   Clear
11:54 AM 48.9 °F - 28.9 °F 46% 30.40 in 10.0 mi WSW 9.2 mph - N/A   Clear
12:54 PM 50.0 °F - 28.9 °F 44% 30.38 in 10.0 mi SW 13.8 mph - N/A   Clear
1:54 PM 51.1 °F - 28.9 °F 43% 30.38 in 10.0 mi WSW 9.2 mph - N/A   Clear
2:54 PM 50.0 °F - 30.0 °F 46% 30.39 in 10.0 mi WSW 8.1 mph 17.3 mph N/A   Clear
3:54 PM 50.0 °F - 30.0 °F 46% 30.40 in 10.0 mi WSW 8.1 mph - N/A   Clear
4:54 PM 48.0 °F - 30.0 °F 50% 30.40 in 10.0 mi WSW 4.6 mph - N/A   Clear
5:54 PM 44.1 °F 41.5 °F 33.1 °F 65% 30.41 in 10.0 mi South 4.6 mph - N/A   Clear
6:54 PM 39.0 °F - 30.9 °F 73% 30.42 in 10.0 mi Calm Calm - N/A   Partly Cloudy
7:54 PM 42.1 °F - 34.0 °F 73% 30.42 in 10.0 mi Calm Calm - N/A   Overcast
8:54 PM 43.0 °F 41.3 °F 34.0 °F 71% 30.40 in 10.0 mi South 3.5 mph - N/A   Overcast
9:54 PM 43.0 °F - 33.1 °F 68% 30.40 in 10.0 mi Calm Calm - N/A   Overcast
10:54 PM 43.0 °F - 34.0 °F 71% 30.41 in 10.0 mi Calm Calm - N/A   Overcast
11:54 PM 42.1 °F - 34.0 °F 73% 30.40 in 10.0 mi Calm Calm - N/A   Overcast